Location: Gloden
(48.4833°N, 15.3167°E)
Time: 23:10:23
(UTC+00:00)

ATLAS 5 CENTAUR R/B - Pass Details

Date: 15 December 2019
Orbit: 550 x 1109 km, 63.4° (Epoch: 17 January)

Event Time Altitude Azimuth Distance (km) Brightness Sun altitude
Exits shadow 04:34:00 16° 347° (NNW) 1,872 3.8 -20.3°
Maximum altitude 04:34:38 16° 356° (N) 1,875 3.8 -20.2°
Drops below altitude 10° 04:37:52 10° 33° (NNE) 2,361 4.8 -19.7°
Sets 04:41:31 0° 55° (NE) 3,426 6.0 -19.1°
